Location: Cardiff
(53.7833°N, 113.6000°W)
Time: 17:12:06
(UTC+00:00)

NOAA 15 - Pass Details

Date: 11 December 2023
Orbit: 796 x 810 km, 98.6° (Epoch: 21 February)

Event Time Altitude Azimuth Distance (km) Brightness Sun altitude
Rises 03:25:50 0° 201° (SSW) 3,316 7.9 -35.7°
Reaches altitude 10° 03:28:36 10° 215° (SW) 2,388 7.3 -36.1°
Maximum altitude 03:32:52 24° 269° (W) 1,604 6.6 -36.7°
Drops below altitude 10° 03:37:08 10° 323° (NW) 2,396 7.5 -37.3°
Sets 03:39:55 0° 337° (NNW) 3,329 8.2 -37.7°
